Home > Weather > Turin > Past weeks

Flag for Italy Past Weather in Turin, Italy — Yesterday and Last 2 Weeks

Now
66 °F

Sunny.


Feels Like: 66 °F
Forecast: 65 / 86 °F
Wind: No wind

Location: Torino / Bric Della Croce

Current Time: Jul 28, 2016 at 10:43:59 AM

Latest Report: Jul 28, 2016 at 9:55 AM


Visibility: 10 mi

Pressure: 30.07 "Hg

Humidity: 100%

Dew Point: 66 °F

Location of TurinLocation

Past Weather in Turin — Graph

°F

Turin Temperature Yesterday

Maximum temperature yesterday: 77 °F (at 1:55 PM)
Minimum temperature yesterday: 63 °F (at 9:55 PM)
Average temperature yesterday: 71 °F

High & Low Weather Summary for the Past Weeks

 TemperatureHumidityPressure
High82 °F (Jul 18, 4:55 PM)100% (Jul 22, 12:55 AM)30.21 "Hg (Jul 22, 12:55 AM)
Low54 °F (Jul 14, 7:55 PM)17% (Jul 16, 9:55 PM)29.71 "Hg (Jul 13, 4:55 PM)
Average70 °F65%30.07 "Hg
* Reported Jul 13 8:55 AM — Jul 28 8:55 AM, Turin, Weather by CustomWeather, © 2016

Note: Actual official high and low records may vary slightly from our data, if they occured in-between our weather recording intervals... More about our weather records

Advertising

Turin Weather History for the Previous 24 Hours

Scroll right to see more
 ConditionsComfort  
Time TempWeatherWind HumidityBarometerVisibility
8:55 AM
Thu, Jul 28
64 °FSunny.No wind94%30.07 "Hg10 mi
7:55 AM64 °FSunny.No wind88%30.07 "Hg10 mi
6:55 AM63 °FClear.No wind100%30.07 "Hg10 mi
5:55 AM63 °FClear.No wind100%30.07 "Hg10 mi
4:55 AM64 °FClear.No wind88%30.07 "Hg10 mi
3:55 AM64 °FClear.3 mph88%30.07 "Hg10 mi
2:55 AM64 °FClear.No wind88%30.07 "Hg10 mi
1:55 AM64 °FClear.7 mph94%30.07 "Hg10 mi
12:55 AM66 °FClear.7 mph78%30.07 "Hg10 mi
11:55 PM
Wed, Jul 27
64 °FClear.7 mph78%30.07 "Hg10 mi
10:55 PM63 °FLight rain. Passing clouds.No wind100%30.07 "HgN/A
9:55 PM63 °FThunderstorms. Broken clouds.8 mph88%30.07 "HgN/A
8:55 PM64 °FThunderstorms. Scattered clouds.10 mph100%30.01 "HgN/A
7:55 PM72 °FScattered clouds.8 mph100%30.01 "HgN/A
6:55 PM75 °FThunderstorms. Partly sunny.No wind100%30.01 "HgN/A
5:55 PM77 °FThunderstorms. Scattered clouds.No wind74%30.01 "HgN/A
4:55 PM77 °FScattered clouds.3 mph74%30.04 "HgN/A
3:55 PM77 °FPassing clouds.No wind74%30.04 "HgN/A
2:55 PM77 °FPartly sunny.No wind74%30.04 "HgN/A
1:55 PM77 °FScattered clouds.No wind74%30.07 "HgN/A
12:55 PM75 °FPassing clouds.No wind69%30.07 "HgN/A
11:55 AM73 °FPassing clouds.No wind74%30.07 "HgN/A
10:55 AM72 °FPassing clouds.No wind78%30.07 "HgN/A
Weather by CustomWeather, © 2016

See weather overviewHow to use our weather pages